| time (UTC) | temp C | wind direction | speed KPH | gust KPH | rain 1hr cm | rain 24hr cm | rain mn cm | humidity % | barometer mb |
| 20260901060310 | 13 | 0 | 0.0 | 0.0 | 0.00 | 0.00 | 0.00 | 84 | 1019.6 |
| 20260901055310 | 13 | 0 | 0.0 | 0.0 | 0.00 | 0.00 | 0.00 | 84 | 1019.6 |
| 20260901054310 | 13 | 0 | 0.0 | 0.0 | 0.00 | 0.00 | 0.00 | 84 | 1019.6 |
| 20260901053310 | 13 | 0 | 0.0 | 0.0 | 0.00 | 0.00 | 0.00 | 83 | 1019.6 |
| 20260901052309 | 13 | 0 | 0.0 | 0.0 | 0.00 | 0.00 | 0.00 | 83 | 1019.8 |
| 20260901051309 | 13 | 0 | 0.0 | 0.0 | 0.00 | 0.00 | 0.00 | 83 | 1019.8 |
| 20260901050309 | 13 | 0 | 0.0 | 0.0 | 0.00 | 0.03 | 0.00 | 83 | 1019.8 |
| 20260901045309 | 13 | 0 | 0.0 | 0.0 | 0.00 | 0.03 | 0.00 | 83 | 1019.8 |
| 20260901044314 | 13 | 0 | 0.0 | 4.8 | 0.00 | 0.03 | 0.00 | 83 | 1019.8 |
| 20260901043314 | 13 | 0 | 0.0 | 0.0 | 0.00 | 0.03 | 0.00 | 82 | 1019.7 |
| 20260901042314 | 13 | 0 | 0.0 | 0.0 | 0.00 | 0.03 | 0.00 | 82 | 1019.7 |
| 20260901041314 | 13 | 0 | 0.0 | 0.0 | 0.00 | 0.03 | 0.00 | 82 | 1019.7 |
| 20260901040313 | 13 | 0 | 0.0 | 0.0 | 0.00 | 0.03 | 0.00 | 82 | 1019.7 |
| 20260901035313 | 13 | 0 | 0.0 | 0.0 | 0.00 | 0.03 | 0.00 | 82 | 1019.7 |
| 20260901034313 | 13 | 0 | 0.0 | 4.8 | 0.00 | 0.03 | 0.00 | 82 | 1019.7 |
| 20260901030312 | 13 | 0 | 0.0 | 0.0 | 0.00 | 0.03 | 0.00 | 82 | 1019.8 |
| 20260901025313 | 13 | 0 | 0.0 | 0.0 | 0.00 | 0.03 | 0.00 | 82 | 1019.8 |
| 20260901023312 | 13 | 0 | 0.0 | 0.0 | 0.00 | 0.03 | 0.00 | 81 | 1019.8 |
| 20260901022312 | 13 | 0 | 0.0 | 0.0 | 0.00 | 0.03 | 0.00 | 81 | 1019.8 |
| 20260901021312 | 13 | 0 | 0.0 | 0.0 | 0.00 | 0.03 | 0.00 | 81 | 1019.7 |
| 20260901020312 | 13 | 0 | 0.0 | 6.4 | 0.00 | 0.03 | 0.00 | 81 | 1019.6 |
| 20260901015312 | 13 | 0 | 0.0 | 0.0 | 0.00 | 0.03 | 0.00 | 81 | 1019.6 |
| 20260901014311 | 13 | 0 | 0.0 | 0.0 | 0.00 | 0.03 | 0.00 | 81 | 1019.3 |
| 20260901013311 | 13 | 0 | 0.0 | 0.0 | 0.00 | 0.03 | 0.00 | 81 | 1019.2 |
| 20260901012311 | 13 | 0 | 0.0 | 0.0 | 0.00 | 0.03 | 0.00 | 80 | 1019.2 |
| 20260901011311 | 13 | 0 | 0.0 | 0.0 | 0.00 | 0.03 | 0.00 | 80 | 1019.2 |
| 20260901010311 | 13 | 0 | 0.0 | 1.6 | 0.00 | 0.03 | 0.00 | 79 | 1019.2 |
| 20260901005311 | 13 | 360 | 3.2 | 8.0 | 0.00 | 0.03 | 0.00 | 79 | 1019.2 |
| 20260901004311 | 13 | 337 | 1.6 | 8.0 | 0.00 | 0.03 | 0.00 | 77 | 1019.3 |
| 20260901003311 | 13 | 0 | 0.0 | 3.2 | 0.00 | 0.03 | 0.00 | 76 | 1019.1 |
| 20260901002310 | 14 | 0 | 0.0 | 0.0 | 0.00 | 0.03 | 0.00 | 75 | 1019.1 |
| 20260901001312 | 14 | 0 | 0.0 | 0.0 | 0.00 | 0.03 | 0.00 | 75 | 1018.9 |
| 20260831235310 | 14 | 0 | 0.0 | 0.0 | 0.00 | 0.03 | 0.00 | 75 | 1018.7 |
| 20260831233310 | 14 | 0 | 0.0 | 0.0 | 0.00 | 0.03 | 0.00 | 75 | 1018.9 |
| 20260831232310 | 14 | 0 | 0.0 | 0.0 | 0.00 | 0.03 | 0.00 | 74 | 1018.7 |
| 20260831231309 | 13 | 360 | 3.2 | 6.4 | 0.00 | 0.03 | 0.00 | 75 | 1018.9 |
| 20260831230309 | 13 | 0 | 0.0 | 4.8 | 0.00 | 0.03 | 0.00 | 77 | 1018.9 |
| 20260831225309 | 13 | 0 | 0.0 | 0.0 | 0.00 | 0.03 | 0.00 | 79 | 1018.7 |
| 20260831224309 | 13 | 202 | 3.2 | 6.4 | 0.00 | 0.03 | 0.00 | 80 | 1018.6 |
| 20260831223309 | 14 | 0 | 0.0 | 0.0 | 0.00 | 0.03 | 0.00 | 82 | 1018.5 |
| 20260831222314 | 14 | 0 | 0.0 | 0.0 | 0.00 | 0.03 | 0.00 | 82 | 1018.5 |
| 20260831220313 | 13 | 45 | 1.6 | 4.8 | 0.00 | 0.03 | 0.03 | 82 | 1018.0 |
| 20260831214313 | 14 | 0 | 0.0 | 6.4 | 0.00 | 0.03 | 0.03 | 82 | 1017.9 |
| 20260831213313 | 13 | 22 | 4.8 | 8.0 | 0.00 | 0.03 | 0.03 | 82 | 1017.8 |
| 20260831212313 | 14 | 0 | 0.0 | 0.0 | 0.00 | 0.03 | 0.03 | 82 | 1017.9 |
| 20260831211313 | 13 | 0 | 0.0 | 0.0 | 0.00 | 0.03 | 0.03 | 82 | 1017.4 |
| 20260831210313 | 13 | 0 | 0.0 | 0.0 | 0.00 | 0.03 | 0.03 | 83 | 1017.3 |
| 20260831205313 | 13 | 360 | 3.2 | 6.4 | 0.00 | 0.03 | 0.03 | 83 | 1017.3 |
| 20260831204312 | 13 | 22 | 4.8 | 6.4 | 0.00 | 0.03 | 0.03 | 81 | 1016.9 |
| 20260831203312 | 14 | 45 | 6.4 | 6.4 | 0.00 | 0.03 | 0.03 | 81 | 1016.7 |
| 20260831202312 | 14 | 22 | 4.8 | 6.4 | 0.00 | 0.03 | 0.03 | 80 | 1016.7 |
| 20260831201312 | 14 | 0 | 0.0 | 0.0 | 0.00 | 0.03 | 0.03 | 79 | 1016.7 |
| 20260831200312 | 15 | 0 | 0.0 | 0.0 | 0.00 | 0.03 | 0.03 | 79 | 1016.7 |
| 20260831195312 | 15 | 0 | 0.0 | 0.0 | 0.00 | 0.03 | 0.03 | 78 | 1016.9 |
| 20260831194312 | 15 | 360 | 3.2 | 6.4 | 0.00 | 0.03 | 0.03 | 77 | 1016.7 |
| 20260831193312 | 15 | 0 | 0.0 | 0.0 | 0.00 | 0.03 | 0.03 | 77 | 1016.3 |
| 20260831192312 | 15 | 45 | 3.2 | 6.4 | 0.00 | 0.03 | 0.03 | 76 | 1016.3 |
| 20260831191311 | 15 | 0 | 0.0 | 8.0 | 0.00 | 0.03 | 0.03 | 77 | 1016.2 |
| 20260831190311 | 15 | 22 | 6.4 | 8.0 | 0.00 | 0.03 | 0.03 | 77 | 1016.2 |
| 20260831185311 | 16 | 360 | 6.4 | 8.0 | 0.00 | 0.03 | 0.03 | 76 | 1016.4 |
| 20260831184311 | 16 | 360 | 6.4 | 8.0 | 0.00 | 0.03 | 0.03 | 74 | 1015.8 |
| 20260831183312 | 16 | 45 | 3.2 | 8.0 | 0.00 | 0.03 | 0.03 | 73 | 1015.8 |
| 20260831182311 | 17 | 360 | 4.8 | 6.4 | 0.00 | 0.03 | 0.03 | 72 | 1015.8 |
| 20260831181310 | 17 | 360 | 3.2 | 6.4 | 0.00 | 0.03 | 0.03 | 71 | 1015.9 |
| 20260831180310 | 18 | 0 | 0.0 | 0.0 | 0.00 | 0.03 | 0.03 | 68 | 1015.7 |
| 20260831175310 | 18 | 0 | 0.0 | 4.8 | 0.00 | 0.03 | 0.03 | 67 | 1015.7 |
| 20260831173310 | 19 | 360 | 1.6 | 3.2 | 0.00 | 0.03 | 0.03 | 62 | 1015.7 |
| 20260831170310 | 20 | 292 | 0.0 | 3.2 | 0.00 | 0.03 | 0.03 | 58 | 1015.4 |
| 20260831165309 | 20 | 270 | 1.6 | 8.0 | 0.00 | 0.03 | 0.03 | 57 | 1015.3 |
| 20260831164309 | 20 | 180 | 0.0 | 6.4 | 0.00 | 0.03 | 0.03 | 57 | 1015.5 |
| 20260831163309 | 20 | 247 | 0.0 | 4.8 | 0.00 | 0.03 | 0.03 | 58 | 1015.6 |
| 20260831162309 | 20 | 247 | 3.2 | 11.3 | 0.00 | 0.03 | 0.03 | 56 | 1015.6 |
| 20260831161314 | 20 | 202 | 0.0 | 11.3 | 0.00 | 0.03 | 0.03 | 56 | 1015.7 |
| 20260831160314 | 20 | 292 | 4.8 | 9.7 | 0.00 | 0.03 | 0.03 | 57 | 1015.6 |
| 20260831155314 | 20 | 0 | 0.0 | 11.3 | 0.00 | 0.03 | 0.03 | 57 | 1015.5 |
| 20260831153313 | 21 | 292 | 3.2 | 19.3 | 0.00 | 0.03 | 0.03 | 57 | 1016.0 |
| 20260831152313 | 21 | 270 | 4.8 | 9.7 | 0.00 | 0.03 | 0.03 | 55 | 1015.9 |
| 20260831151313 | 21 | 292 | 4.8 | 17.7 | 0.00 | 0.03 | 0.03 | 56 | 1016.2 |
| 20260831150313 | 21 | 292 | 3.2 | 12.9 | 0.00 | 0.03 | 0.03 | 55 | 1016.2 |
| 20260831145313 | 21 | 292 | 3.2 | 25.7 | 0.00 | 0.03 | 0.03 | 55 | 1016.0 |
| 20260831144313 | 21 | 270 | 8.0 | 27.4 | 0.00 | 0.03 | 0.03 | 55 | 1015.9 |
| 20260831143313 | 21 | 270 | 1.6 | 11.3 | 0.00 | 0.03 | 0.03 | 56 | 1016.3 |
| 20260831142313 | 21 | 180 | 11.3 | 25.7 | 0.00 | 0.03 | 0.03 | 54 | 1016.3 |
| 20260831141312 | 21 | 180 | 4.8 | 19.3 | 0.00 | 0.03 | 0.03 | 56 | 1016.1 |
| 20260831140312 | 21 | 180 | 6.4 | 22.5 | 0.00 | 0.03 | 0.03 | 57 | 1016.0 |
| 20260831135312 | 21 | 202 | 3.2 | 19.3 | 0.00 | 0.03 | 0.03 | 55 | 1015.9 |
| 20260831134312 | 21 | 180 | 6.4 | 24.1 | 0.00 | 0.03 | 0.03 | 57 | 1016.2 |
| 20260831133312 | 21 | 180 | 6.4 | 12.9 | 0.00 | 0.03 | 0.03 | 56 | 1016.4 |
| 20260831132312 | 21 | 315 | 3.2 | 17.7 | 0.00 | 0.03 | 0.03 | 55 | 1016.3 |
| 20260831130311 | 21 | 202 | 6.4 | 22.5 | 0.00 | 0.03 | 0.03 | 58 | 1016.4 |
| 20260831125311 | 21 | 157 | 8.0 | 24.1 | 0.00 | 0.03 | 0.03 | 58 | 1016.4 |
| 20260831124311 | 21 | 180 | 8.0 | 17.7 | 0.00 | 0.03 | 0.03 | 59 | 1016.4 |
| 20260831122311 | 20 | 202 | 9.7 | 29.0 | 0.00 | 0.03 | 0.03 | 56 | 1016.1 |
| 20260831121311 | 20 | 202 | 11.3 | 22.5 | 0.00 | 0.03 | 0.03 | 64 | 1016.2 |
| 20260831120311 | 20 | 202 | 4.8 | 14.5 | 0.00 | 0.03 | 0.03 | 64 | 1016.3 |
| 20260831115312 | 19 | 180 | 1.6 | 24.1 | 0.00 | 0.03 | 0.03 | 63 | 1016.1 |
| 20260831114310 | 20 | 225 | 4.8 | 16.1 | 0.00 | 0.03 | 0.03 | 60 | 1016.2 |
| 20260831113310 | 20 | 292 | 8.0 | 22.5 | 0.00 | 0.03 | 0.03 | 66 | 1016.3 |
| 20260831112310 | 19 | 180 | 4.8 | 14.5 | 0.00 | 0.03 | 0.03 | 69 | 1016.1 |
| 20260831111310 | 20 | 315 | 9.7 | 17.7 | 0.00 | 0.03 | 0.03 | 66 | 1016.2 |
| 20260831110310 | 20 | 292 | 8.0 | 20.9 | 0.00 | 0.03 | 0.03 | 71 | 1016.3 |
| 20260831105310 | 20 | 202 | 8.0 | 17.7 | 0.00 | 0.03 | 0.03 | 70 | 1016.3 |
| 20260831104309 | 19 | 202 | 4.8 | 17.7 | 0.00 | 0.03 | 0.03 | 77 | 1016.5 |
| 20260831103309 | 18 | 270 | 8.0 | 14.5 | 0.00 | 0.03 | 0.03 | 75 | 1016.2 |
| 20260831102309 | 18 | 270 | 6.4 | 14.5 | 0.00 | 0.03 | 0.03 | 76 | 1016.2 |
| 20260831101309 | 18 | 292 | 3.2 | 19.3 | 0.00 | 0.03 | 0.03 | 76 | 1016.5 |
| 20260831100309 | 17 | 337 | 11.3 | 17.7 | 0.00 | 0.03 | 0.03 | 79 | 1016.2 |
| 20260831095314 | 17 | 247 | 1.6 | 8.0 | 0.00 | 0.03 | 0.03 | 83 | 1016.2 |
| 20260831094314 | 16 | 315 | 0.0 | 8.0 | 0.00 | 0.03 | 0.03 | 85 | 1015.8 |
| 20260831093314 | 16 | 180 | 4.8 | 19.3 | 0.00 | 0.03 | 0.03 | 86 | 1015.7 |
| 20260831091313 | 16 | 202 | 3.2 | 9.7 | 0.00 | 0.03 | 0.03 | 87 | 1015.4 |
| 20260831090313 | 16 | 202 | 0.0 | 14.5 | 0.00 | 0.03 | 0.03 | 88 | 1015.4 |
| 20260831085313 | 16 | 0 | 0.0 | 9.7 | 0.00 | 0.03 | 0.03 | 87 | 1015.6 |
| 20260831084313 | 16 | 292 | 4.8 | 14.5 | 0.00 | 0.03 | 0.03 | 88 | 1015.6 |
| 20260831083313 | 16 | 202 | 4.8 | 14.5 | 0.00 | 0.03 | 0.03 | 88 | 1015.5 |
| 20260831082313 | 16 | 180 | 8.0 | 12.9 | 0.00 | 0.03 | 0.03 | 88 | 1015.5 |
| 20260831081312 | 15 | 202 | 6.4 | 12.9 | 0.00 | 0.03 | 0.03 | 87 | 1015.2 |
| 20260831074312 | 16 | 0 | 0.0 | 14.5 | 0.00 | 0.03 | 0.03 | 87 | 1015.2 |
| 20260831072312 | 16 | 270 | 6.4 | 22.5 | 0.00 | 0.03 | 0.03 | 90 | 1015.1 |
| 20260831070311 | 16 | 0 | 0.0 | 6.4 | 0.00 | 0.03 | 0.03 | 90 | 1014.7 |
| 20260831064311 | 16 | 202 | 1.6 | 4.8 | 0.00 | 0.03 | 0.03 | 91 | 1014.8 |